FW4335 Weather Reports


time (UTC)temp
C
wind
direction
speed
KPH
gust
KPH
rain 1hr
cm
rain 24hr
cm
rain mn
cm
humidity
%
barometer
mb
20260503191536 27 349 1.6 6.4 0.00 0.00 0.00 42 1014.9
20260503190030 27 358 1.6 6.4 0.00 0.00 0.00 45 1015.2
20260503184535 26 22 0.0 6.4 0.00 0.00 0.00 46 1015.4
20260503181534 26 296 0.0 6.4 0.00 0.00 0.00 48 1015.7
20260503180036 25 341 0.0 4.8 0.00 0.00 0.00 49 1015.8
20260503173037 24 27 0.0 6.4 0.00 0.00 0.00 48 1016.2
20260503171530 22 24 0.0 3.2 0.00 0.00 0.00 51 1016.3
20260503081534 11 225 0.0 3.2 0.00 0.00 0.00 91 1016.5
20260503071533 11 225 1.6 4.8 0.00 0.00 0.00 89 1016.5
20260503054532 13 202 0.0 3.2 0.00 0.00 0.00 86 1016.4
20260503053030 13 202 0.0 3.2 0.00 0.00 0.00 85 1016.4
20260503051535 13 208 1.6 4.8 0.00 0.00 0.00 85 1016.3
20260503050035 14 150 0.0 3.2 0.00 0.00 0.00 84 1016.2
20260503044530 14 192 0.0 3.2 0.00 0.00 0.00 83 1016.2
20260503043106 15 202 0.0 3.2 0.00 0.00 0.00 82 1016.0
20260503034607 17 202 0.0 3.2 0.00 0.00 0.00 78 1015.1
20260503031607 18 18 0.0 4.8 0.00 0.00 0.00 77 1014.4
20260503030035 19 22 0.0 0.0 0.00 0.00 0.00 75 1014.1
20260503024535 20 28 0.0 1.6 0.00 0.00 0.00 71 1014.0
20260503023030 21 45 0.0 0.0 0.00 0.00 0.00 65 1013.8
20260503021533 22 45 0.0 0.0 0.00 0.00 0.00 60 1013.7
20260503020144 23 45 0.0 0.0 0.00 0.00 0.00 56 1013.6
20260503013032 24 337 0.0 0.0 0.00 0.00 0.00 54 1013.5
20260503010035 25 343 0.0 3.2 0.00 0.00 0.00 51 1013.4
20260503004533 27 267 0.0 6.4 0.00 0.00 0.00 41 1013.4
20260503003029 27 225 0.0 1.6 0.00 0.00 0.00 37 1013.4
20260503001532 27 185 0.0 8.0 0.00 0.00 0.00 34 1013.4
20260503000032 27 188 1.6 8.0 0.00 0.00 0.00 36 1013.5
20260502233038 28 135 3.2 9.7 0.00 0.00 0.00 35 1013.9
20260502231536 28 216 1.6 4.8 0.00 0.00 0.00 38 1014.1
20260502230033 28 191 0.0 3.2 0.00 0.00 0.00 40 1014.2
20260502224532 28 291 0.0 4.8 0.00 0.00 0.00 39 1014.5
20260502223031 28 280 0.0 8.0 0.00 0.00 0.00 40 1014.7
20260502221532 27 280 0.0 3.2 0.00 0.00 0.00 43 1014.9
20260502220032 26 279 0.0 4.8 0.00 0.00 0.00 48 1015.2
20260502214537 25 349 0.0 4.8 0.00 0.00 0.00 50 1015.4
20260502213108 25 132 1.6 9.7 0.00 0.00 0.00 52 1015.7
20260502211535 23 57 1.6 6.4 0.00 0.00 0.00 56 1015.9
20260502210034 22 19 0.0 4.8 0.00 0.00 0.00 63 1016.2
20260502201532 20 25 1.6 4.8 0.00 0.00 0.00 67 1016.6
20260502200034 20 296 0.0 3.2 0.00 0.00 0.00 71 1016.7
20260502194531 17 314 0.0 3.2 0.00 0.00 0.00 76 1016.9